Weather History for Sydney, NW

Change the Weather History Date:

Sunday, April 20, 2014

  Actual Average Record
Temperature  
Mean Temperature 64 °F -  
Max Temperature 75 °F 70 °F 84 °F (2006)
Min Temperature 54 °F 53 °F 54 °F (2013)
Growing Degree Days 14 (Base 50)    
Moisture  
Dew Point 51 °F    
Average Humidity 58    
Maximum Humidity 83    
Minimum Humidity 32    
Precipitation  
Precipitation 0.00 in 0.13 in - ()
Sea Level Pressure  
Sea Level Pressure 30.02 in    
Wind  
Wind Speed 7 mph ()    
Max Wind Speed 16 mph    
Max Gust Speed -    
Visibility 8.2 miles    
Events      
Averages and records for this station are not official NWS values.
T = Trace of Precipitation, MM = Missing Value Source: Averaged Metar Reports

Daily Weather History Graph

Daily Weather History Graph

Search for Another Location

Airport:

Trip Planner

Search our weather history database for the weather conditions in past years. The results will help you decide how hot, cold, wet, or windy it might be!

Date:

Astronomy

Apr. 20, 2014 Rise Set
Actual Time 6:21 AM AEST 5:26 PM AEST
Civil Twilight 5:55 AM AEST 5:52 PM AEST
Nautical Twilight 5:26 AM AEST 6:21 PM AEST
Astronomical Twilight 4:57 AM AEST 6:50 PM AEST
Moon 9:35 PM AEST 10:53 AM AEST
Length of Visible Light 11h 56m
Length of Day
11h 05m
Waning Gibbous, 75% of the Moon is Illuminated
Apr 20
Waning Gibbous
Apr 22
Last Quarter
Apr 29
New
May 7
First Quarter
May 15
Full

Hourly Weather History & Observations

Time (AEST) Temp. Dew Point Humidity Pressure Visibility Wind Dir Wind Speed Gust Speed Precip Events Conditions
12:00 AM 61 °F 45 °F 45% 30.06 in 25 mi West 9.2 mph - -   Partly Cloudy
12:00 AM 60.8 °F 44.6 °F 55% 30.04 in - West 9.2 mph - N/A   Clear
12:30 AM 60.8 °F 46.4 °F 59% 30.04 in - West 6.9 mph - N/A   Clear
1:00 AM 60 °F 46 °F 48% 30.05 in - NNW 6.9 mph - -  
1:00 AM 60.8 °F 46.4 °F 59% 30.04 in - NNW 6.9 mph - N/A   Clear
1:30 AM 57.2 °F 46.4 °F 67% 30.04 in - North 5.8 mph - N/A   Clear
2:00 AM 58 °F 46 °F 54% 30.04 in - NNW 8.1 mph - -  
2:00 AM 57.2 °F 46.4 °F 67% 30.04 in - NNW 8.1 mph - N/A   Clear
2:30 AM 57.2 °F 46.4 °F 67% 30.01 in - NNW 6.9 mph - N/A   Clear
3:00 AM 56 °F 46 °F 60% 30.03 in 25 mi NNW 8.1 mph - -   Partly Cloudy
3:00 AM 55.4 °F 46.4 °F 72% 30.01 in - NNW 8.1 mph - N/A   Clear
3:30 AM 55.4 °F 46.4 °F 72% 30.01 in - North 8.1 mph - N/A   Clear
4:00 AM 56 °F 46 °F 59% 30.02 in - NNW 8.1 mph - -  
4:00 AM 55.4 °F 46.4 °F 72% 30.01 in - NNW 8.1 mph - N/A   Clear
4:30 AM 55.4 °F 46.4 °F 72% 30.01 in - NNW 6.9 mph - N/A   Clear
5:00 AM 55 °F 45 °F 61% 30.03 in - NW 8.1 mph - -  
5:00 AM 55.4 °F 44.6 °F 67% 30.01 in - NW 8.1 mph - N/A   Clear
5:30 AM 55.4 °F 46.4 °F 72% 30.01 in - NNW 6.9 mph - N/A   Clear
6:00 AM 55 °F 45 °F 61% 30.04 in 25 mi NW 5.8 mph - -   Partly Cloudy
6:00 AM 55.4 °F 44.6 °F 67% 30.04 in 6.2 mi NW 5.8 mph - N/A   Scattered Clouds
6:30 AM 55.4 °F 46.4 °F 72% 30.04 in 6.2 mi NW 6.9 mph - N/A   Mostly Cloudy
7:00 AM 56 °F 46 °F 60% 30.05 in - NNW 8.1 mph - -  
7:30 AM 57.2 °F 46.4 °F 67% 30.04 in - NW 6.9 mph - N/A   Clear
8:00 AM 60 °F 46 °F 50% 30.07 in - NW 6.9 mph - -  
8:00 AM 60.8 °F 46.4 °F 59% 30.06 in - NW 6.9 mph - N/A   Clear
8:30 AM 62.6 °F 46.4 °F 55% 30.06 in - NW 6.9 mph - N/A   Clear
9:00 AM 64 °F 46 °F 41% 30.07 in 16 mi NW 8.1 mph - -   Partly Cloudy
9:00 AM 64.4 °F 46.4 °F 52% 30.06 in 6.2 mi NW 8.1 mph - N/A   Scattered Clouds
9:30 AM 66.2 °F 46.4 °F 49% 30.06 in 6.2 mi WNW 8.1 mph - N/A   Partly Cloudy
10:00 AM 69 °F 47 °F 34% 30.06 in - WNW 5.8 mph - -  
10:00 AM 69.8 °F 46.4 °F 43% 30.06 in 6.2 mi WNW 5.8 mph - N/A   Partly Cloudy
10:30 AM 69.8 °F 50.0 °F 49% 30.04 in 6.2 mi WNW 5.8 mph - N/A   Partly Cloudy
11:00 AM 69 °F 50 °F 40% 30.05 in - WSW 5.8 mph - -  
11:00 AM 68.0 °F 50.0 °F 52% 30.04 in 6.2 mi WSW 5.8 mph - N/A   Scattered Clouds
11:30 AM 69.8 °F 50.0 °F 49% 30.01 in 6.2 mi South 4.6 mph - N/A   Scattered Clouds
12:00 PM 73 °F 50 °F 33% 30.01 in 16 mi SSE 5.8 mph - -   Partly Cloudy
12:00 PM 73.4 °F 50.0 °F 44% 30.01 in 6.2 mi SSE 5.8 mph - N/A   Partly Cloudy
12:30 PM 73.4 °F 50.0 °F 44% 29.98 in 6.2 mi NNW 9.2 mph - N/A   Scattered Clouds
1:00 PM 74 °F 50 °F 32% 29.98 in - East 5.8 mph - -  
1:30 PM 73.4 °F 51.8 °F 47% 29.95 in 6.2 mi SE 6.9 mph - N/A   Scattered Clouds
2:00 PM 74 °F 51 °F 34% 29.97 in - NE 9.2 mph - -  
2:00 PM 75.2 °F 51.8 °F 44% 29.95 in 6.2 mi NE 9.2 mph - N/A   Partly Cloudy
2:30 PM 71.6 °F 53.6 °F 53% 29.95 in 6.2 mi ENE 16.1 mph - N/A   Partly Cloudy
3:00 PM 72 °F 54 °F 42% 29.96 in 16 mi ENE 15.0 mph - -   Partly Cloudy
3:00 PM 71.6 °F 53.6 °F 53% 29.95 in 6.2 mi ENE 15.0 mph - N/A   Partly Cloudy
3:30 PM 73.4 °F 53.6 °F 50% 29.95 in 6.2 mi NE 12.7 mph - N/A   Partly Cloudy
4:00 PM 72 °F 54 °F 44% 29.96 in - NE 13.8 mph - -  
4:00 PM 71.6 °F 55.4 °F 57% 29.95 in 6.2 mi NE 13.8 mph - N/A   Partly Cloudy
4:30 PM 71.6 °F 55.4 °F 57% 29.95 in 6.2 mi NNE 15.0 mph - N/A   Partly Cloudy
5:00 PM 71 °F 56 °F 49% 29.97 in - NE 13.8 mph - -  
5:00 PM 71.6 °F 55.4 °F 57% 29.95 in - NE 13.8 mph - N/A   Clear
5:30 PM 69.8 °F 57.2 °F 64% 29.98 in - NE 11.5 mph - N/A   Clear
6:00 PM 69 °F 57 °F 57% 29.99 in 19 mi NE 10.4 mph - -   Partly Cloudy
6:00 PM 69.8 °F 57.2 °F 64% 29.98 in 6.2 mi NNE 10.4 mph - N/A   Partly Cloudy
6:30 PM 68.0 °F 57.2 °F 68% 29.98 in - NE 8.1 mph - N/A   Clear
7:00 PM 70 °F 58 °F 56% 30.00 in - NNE 5.8 mph - -  
7:00 PM 69.8 °F 57.2 °F 64% 29.98 in - NNE 5.8 mph - N/A   Clear
7:30 PM 69.8 °F 57.2 °F 64% 30.01 in - NNE 5.8 mph - N/A   Clear
8:00 PM 69 °F 58 °F 59% 30.02 in - NNE 4.6 mph - -  
8:00 PM 69.8 °F 57.2 °F 64% 30.01 in - NNE 4.6 mph - N/A   Clear
8:30 PM 66.2 °F 59.0 °F 78% 30.01 in 6.2 mi Calm Calm - N/A   Partly Cloudy
9:00 PM 65 °F 61 °F 82% 30.03 in 16 mi Calm Calm - -   Partly Cloudy
9:00 PM 66.2 °F 60.8 °F 83% 30.01 in 6.2 mi Calm Calm - N/A   Partly Cloudy
9:30 PM 66.2 °F 60.8 °F 83% 30.04 in - South 3.5 mph - N/A   Clear
10:00 PM 64 °F 59 °F 77% 30.04 in - WSW 6.9 mph - -  
10:00 PM 64.4 °F 59.0 °F 83% 30.04 in - WSW 6.9 mph - N/A   Clear
10:30 PM 62.6 °F 53.6 °F 72% 30.04 in - SW 12.7 mph - N/A   Clear
11:00 PM 63 °F 48 °F 48% 30.05 in - SW 12.7 mph - -  
11:00 PM 62.6 °F 48.2 °F 59% 30.04 in - SW 12.7 mph - N/A   Clear
11:30 PM 60.8 °F 48.2 °F 63% 30.04 in 6.2 mi SW 10.4 mph - N/A   Partly Cloudy